{"data":{"norad_id":58544,"intl_designator":"2023-192P","name":"STARLINK-31048","alt_names":[],"object_type":"PAYLOAD","status":"ACTIVE","operator":null,"country":"US","launch_date":"2023-12-08","launch_site_code":"AFWTR","launch_vehicle":null,"mission":null,"orbit_class":"UNKNOWN","rcs_meters":null,"size_class":null,"mass_kg":null,"dimensions":null,"purposes":["comms"],"wikipedia_slug":null,"has_3d_model":false,"image_url":null,"decayed_at":null,"tle_current":{"epoch":"2026-05-25T01:46:01.043616Z","epoch_age_seconds":62550,"freshness":"FRESH","line1":"1 58544U 23192P   26145.07362319 -.00000034  00000+0  10973-4 0  9993","line2":"2 58544  53.1607  67.6505 0001154  84.3506 275.7627 15.30195128137682","mean_motion":15.30195128,"eccentricity":0.0001154,"inclination_deg":53.1607,"raan_deg":67.6505,"arg_perigee_deg":84.3506,"mean_anomaly_deg":275.7627,"bstar":1.0973e-5,"rev_number":13768,"period_min":94.105645329175,"perigee_km":474.43873786421,"apogee_km":476.02049487927,"semimajor_km":6853.3666163717,"source":"CELESTRAK","updated_at":"2026-05-25T13:38:18.663091Z"}}}